When you browse on this site, cookies collect data to enhance your experience and personalize the content and advertising you see.
Visit our Privacy Policy to learn more. By continuing to use the site, you agree to this use of cookies and data.
  • In Romania
  • List of Countries
  • For 7 days
  • Water Temperature
  • Satellite Maps
  • Weather Map
  • Weather Widgets
  • user-avatar
    Login

    Hourly Weather Nadzow

    Today, 20 February, Wednesday

    Time Temperature Precipitation Wind Pressure Humidity
    00:00 +5°C° 0.5 mm 5 mps 738 mmHg 83%
    01:00 +5°C° 0.5 mm 5 mps 738 mmHg 85%
    02:00 +3°C° 0 mm 5 mps 739 mmHg 86%
    03:00 +2°C° 0 mm 5 mps 739 mmHg 88%
    04:00 +2°C° 0 mm 5 mps 739 mmHg 89%
    05:00 +2°C° 0 mm 5 mps 739 mmHg 88%
    06:00 +2°C° 0 mm 5 mps 739 mmHg 87%
    07:00 +1°C° 0 mm 5 mps 739 mmHg 86%
    08:00 +2°C° 0 mm 6 mps 740 mmHg 83%
    09:00 +2°C° 0 mm 6 mps 740 mmHg 79%
    10:00 +3°C° 0 mm 6 mps 741 mmHg 75%
    11:00 +3°C° 0 mm 6 mps 741 mmHg 73%
    12:00 +3°C° 0 mm 6 mps 741 mmHg 72%
    13:00 +4°C° 0 mm 6 mps 741 mmHg 70%
    14:00 +4°C° 0 mm 6 mps 741 mmHg 70%
    15:00 +4°C° 0 mm 6 mps 741 mmHg 70%
    16:00 +3°C° 0 mm 6 mps 741 mmHg 70%
    17:00 +3°C° 0 mm 5 mps 742 mmHg 72%
    18:00 +4°C° 0 mm 4 mps 742 mmHg 75%
    19:00 +4°C° 0 mm 4 mps 743 mmHg 77%
    20:00 +3°C° 0 mm 4 mps 743 mmHg 78%
    21:00 +3°C° 0 mm 4 mps 743 mmHg 78%
    22:00 +3°C° 0 mm 4 mps 743 mmHg 79%
    23:00 +3°C° 0 mm 4 mps 743 mmHg 79%

    Tomorrow, 21 February, Thursday

    Time Temperature Precipitation Wind Pressure Humidity
    00:00 +3°C° 0 mm 4 mps 744 mmHg 80%
    01:00 +3°C° 0 mm 4 mps 744 mmHg 81%
    02:00 +3°C° 0 mm 4 mps 744 mmHg 82%
    03:00 +3°C° 0 mm 4 mps 744 mmHg 82%
    04:00 +3°C° 0 mm 4 mps 744 mmHg 83%
    05:00 +3°C° 0 mm 4 mps 744 mmHg 82%
    06:00 +3°C° 0 mm 4 mps 744 mmHg 81%
    07:00 +2°C° 0 mm 5 mps 744 mmHg 81%
    08:00 +2°C° 0 mm 5 mps 744 mmHg 76%
    09:00 +3°C° 0 mm 5 mps 744 mmHg 71%
    10:00 +4°C° 0 mm 6 mps 744 mmHg 66%
    11:00 +4°C° 0.2 mm 6 mps 743 mmHg 65%
    12:00 +5°C° 0.2 mm 6 mps 743 mmHg 65%
    13:00 +5°C° 0.2 mm 7 mps 742 mmHg 65%
    14:00 +5°C° 0.5 mm 7 mps 742 mmHg 67%
    15:00 +5°C° 0.5 mm 7 mps 742 mmHg 70%
    16:00 +5°C° 0.5 mm 7 mps 741 mmHg 73%
    17:00 +4°C° 0.4 mm 7 mps 741 mmHg 75%
    18:00 +4°C° 0.4 mm 7 mps 741 mmHg 76%
    19:00 +4°C° 0.4 mm 7 mps 741 mmHg 78%
    20:00 +4°C° 0.4 mm 7 mps 741 mmHg 80%
    21:00 +4°C° 0.4 mm 7 mps 741 mmHg 82%
    22:00 +4°C° 0.4 mm 7 mps 741 mmHg 83%
    23:00 +4°C° 0.5 mm 6 mps 741 mmHg 85%

    Day after tomorrow, 22 February, Friday

    Time Temperature Precipitation Wind Pressure Humidity
    00:00 +4°C° 0.5 mm 6 mps 740 mmHg 87%
    01:00 +4°C° 0.5 mm 6 mps 740 mmHg 88%
    02:00 +4°C° 0.3 mm 6 mps 740 mmHg 89%
    03:00 +4°C° 0.3 mm 6 mps 740 mmHg 89%
    04:00 +4°C° 0.3 mm 6 mps 740 mmHg 89%
    05:00 +4°C° 0.8 mm 6 mps 741 mmHg 88%
    06:00 +3°C° 0.8 mm 7 mps 741 mmHg 86%
    07:00 +3°C° 0.8 mm 7 mps 742 mmHg 85%
    08:00 +2°C° 0.2 mm 7 mps 743 mmHg 81%
    09:00 -1°C° 0.2 mm 7 mps 744 mmHg 77%
    10:00 -2°C° 0.2 mm 7 mps 745 mmHg 73%
    11:00 -2°C° 0 mm 6 mps 746 mmHg 67%
    12:00 -2°C° 0 mm 6 mps 747 mmHg 60%
    13:00 0°C° 0 mm 5 mps 748 mmHg 54%
    14:00 -1°C° 0 mm 5 mps 749 mmHg 54%
    15:00 -2°C° 0 mm 6 mps 749 mmHg 54%
    16:00 -3°C° 0 mm 6 mps 750 mmHg 53%
    17:00 -4°C° 0 mm 5 mps 750 mmHg 55%
    18:00 -5°C° 0 mm 5 mps 751 mmHg 58%
    19:00 -6°C° 0 mm 5 mps 752 mmHg 60%
    20:00 -6°C° 0 mm 5 mps 752 mmHg 58%
    21:00 -6°C° 0 mm 5 mps 753 mmHg 56%
    22:00 -7°C° 0 mm 4 mps 753 mmHg 53%
    23:00 -7°C° 0 mm 4 mps 754 mmHg 51%

    23 February, Saturday

    Time Temperature Precipitation Wind Pressure Humidity
    00:00 -7°C° 0 mm 4 mps 754 mmHg 48%
    01:00 -7°C° 0 mm 4 mps 755 mmHg 46%
    02:00 -6°C° 0 mm 3 mps 755 mmHg 45%
    03:00 -6°C° 0 mm 3 mps 755 mmHg 43%
    04:00 -6°C° 0 mm 3 mps 755 mmHg 42%
    05:00 -5°C° 0 mm 2 mps 755 mmHg 42%
    06:00 -5°C° 0 mm 2 mps 755 mmHg 42%
    07:00 -5°C° 0 mm 2 mps 755 mmHg 42%
    08:00 -4°C° 0 mm 2 mps 756 mmHg 38%
    09:00 -4°C° 0 mm 2 mps 756 mmHg 34%
    10:00 -4°C° 0 mm 3 mps 756 mmHg 29%
    11:00 -2°C° 0 mm 3 mps 756 mmHg 27%
    12:00 -1°C° 0 mm 3 mps 756 mmHg 25%
    13:00 +1°C° 0 mm 2 mps 755 mmHg 22%
    14:00 +1°C° 0 mm 2 mps 755 mmHg 24%
    15:00 -1°C° 0 mm 2 mps 755 mmHg 26%
    16:00 -1°C° 0 mm 2 mps 755 mmHg 28%
    17:00 -2°C° 0 mm 2 mps 755 mmHg 31%
    18:00 0°C° 0 mm 1 mps 755 mmHg 34%
    19:00 -1°C° 0 mm 1 mps 755 mmHg 38%
    20:00 -1°C° 0 mm 1 mps 755 mmHg 38%
    21:00 -2°C° 0 mm 1 mps 755 mmHg 38%
    22:00 -2°C° 0 mm 1 mps 755 mmHg 38%
    23:00 -2°C° 0 mm 1 mps 754 mmHg 38%

    24 February, Sunday

    Time Temperature Precipitation Wind Pressure Humidity
    00:00 -4°C° 0 mm 2 mps 754 mmHg 38%
    01:00 -4°C° 0 mm 2 mps 754 mmHg 38%
    02:00 -4°C° 0 mm 2 mps 754 mmHg 38%
    03:00 -4°C° 0 mm 2 mps 753 mmHg 37%
    04:00 -3°C° 0 mm 2 mps 753 mmHg 37%
    05:00 -3°C° 0 mm 2 mps 753 mmHg 36%
    06:00 -3°C° 0 mm 2 mps 753 mmHg 35%
    07:00 -2°C° 0 mm 2 mps 752 mmHg 34%
    08:00 -1°C° 0 mm 3 mps 752 mmHg 32%
    09:00 0°C° 0 mm 3 mps 752 mmHg 30%
    10:00 +1°C° 0 mm 3 mps 752 mmHg 28%
    11:00 +1°C° 0 mm 4 mps 751 mmHg 28%
    12:00 +3°C° 0 mm 4 mps 751 mmHg 28%
    13:00 +4°C° 0 mm 4 mps 751 mmHg 28%
    14:00 +4°C° 0 mm 4 mps 750 mmHg 34%
    15:00 +3°C° 0 mm 3 mps 750 mmHg 40%
    16:00 +4°C° 0 mm 2 mps 750 mmHg 45%
    17:00 +3°C° 0 mm 2 mps 750 mmHg 49%
    18:00 +2°C° 0 mm 2 mps 750 mmHg 53%
    19:00 +1°C° 0 mm 2 mps 750 mmHg 57%
    20:00 +1°C° 0 mm 2 mps 750 mmHg 59%
    21:00 +1°C° 0 mm 2 mps 750 mmHg 61%
    22:00 +1°C° 0 mm 2 mps 750 mmHg 63%
    23:00 +2°C° 0 mm 1 mps 750 mmHg 63%

    25 February, Monday

    Time Temperature Precipitation Wind Pressure Humidity
    00:00 +2°C° 0 mm 1 mps 750 mmHg 64%
    01:00 +2°C° 0 mm 1 mps 750 mmHg 65%
    02:00 +1°C° 0 mm 1 mps 750 mmHg 65%
    03:00 +1°C° 0 mm 1 mps 749 mmHg 65%
    04:00 +1°C° 0 mm 1 mps 749 mmHg 66%
    05:00 -1°C° 0 mm 2 mps 749 mmHg 66%
    06:00 -1°C° 0 mm 2 mps 749 mmHg 67%
    07:00 -1°C° 0 mm 2 mps 749 mmHg 67%
    08:00 +2°C° 0 mm 2 mps 749 mmHg 64%
    09:00 +2°C° 0 mm 3 mps 749 mmHg 60%
    10:00 +3°C° 0 mm 3 mps 749 mmHg 56%
    11:00 +4°C° 0 mm 3 mps 749 mmHg 55%
    12:00 +5°C° 0 mm 3 mps 749 mmHg 54%
    13:00 +7°C° 0 mm 3 mps 748 mmHg 53%
    14:00 +6°C° 0 mm 4 mps 748 mmHg 56%
    15:00 +6°C° 0 mm 4 mps 748 mmHg 59%
    16:00 +6°C° 0 mm 4 mps 748 mmHg 62%
    17:00 +5°C° 0 mm 4 mps 748 mmHg 69%
    18:00 +4°C° 0 mm 3 mps 749 mmHg 77%
    19:00 +2°C° 0 mm 3 mps 749 mmHg 85%
    20:00 +2°C° 0 mm 3 mps 749 mmHg 87%
    21:00 +2°C° 0 mm 3 mps 749 mmHg 90%
    22:00 +1°C° 0 mm 3 mps 749 mmHg 93%
    23:00 +1°C° 0 mm 3 mps 749 mmHg 93%
    Show more